This demonstration page uses our WeatherBlox Daily Observations layout. Learn more.

Left ArrowRight Arrow

39.01783, -85.05884

Hourly Observations for June 16, 2018

Temp ( °F °C ) Dew Point ( °F °C ) Humidity (%) Winds ( mph kmh ) Pressure ( in mb ) Visibility ( mi km ) Precip ( " mm )
12:52 am 00:52 Mostly Clear 74 23.3 57 13.9 56 56 SSE 5 7 29.99 1016 10 16 N/A
1:52 am 01:52 Clear 73 22.8 58 14.4 59 59 SSE 5 7 30.00 1016 10 16 N/A
2:52 am 02:52 Clear 69 20.6 61 16.1 76 76 S 3 6 29.99 1016 10 16 N/A
3:52 am 03:52 Partly Cloudy 67 19.4 60 15.6 79 79 N N/A 29.98 1015 10 16 N/A
4:52 am 04:52 Mostly Clear 67 19.4 61 16.1 81 81 SSW 3 6 29.98 1015 10 16 N/A
5:52 am 05:52 Mostly Clear 68 20 59 15 73 73 SSE 3 6 30.00 1016 10 16 N/A
6:52 am 06:52 Mostly Sunny 67 19.4 59 15 76 76 SSE 5 7 30.03 1017 10 16 N/A
7:52 am 07:52 Mostly Sunny 73 22.8 62 16.7 69 69 S 3 6 30.04 1017 10 16 N/A
8:52 am 08:52 Mostly Sunny 77 25 61 16.1 58 58 VRB 6 9 30.04 1017 10 16 N/A
9:52 am 09:52 Partly Cloudy 80 26.7 60 15.6 51 51 SSW 8 13 30.04 1017 10 16 N/A
10:52 am 10:52 Sunny 84 28.9 62 16.7 48 48 SSW 12 19 30.01 1016 10 16 N/A
11:52 am 11:52 Sunny 86 30 64 17.8 48 48 SSW 8 13 30.01 1016 10 16 N/A
12:52 pm 12:52 Mostly Sunny 88 31.1 65 18.3 46 46 W 5 7 30.02 1017 10 16 N/A
1:52 pm 13:52 Mostly Sunny 89 31.7 67 19.4 48 48 VRB 5 7 30.01 1016 10 16 N/A
2:52 pm 14:52 Partly Cloudy 90 32.2 67 19.4 47 47 VRB 5 7 30.00 1016 10 16 N/A
3:52 pm 15:52 Partly Cloudy 92 33.3 67 19.4 44 44 S 3 6 29.99 1016 10 16 N/A
4:52 pm 16:52 Mostly Sunny 91 32.8 67 19.4 45 45 N N/A 29.98 1015 10 16 N/A
5:52 pm 17:52 Mostly Sunny 92 33.3 67 19.4 44 44 WSW 5 7 29.98 1015 10 16 N/A
6:52 pm 18:52 Mostly Sunny 90 32.2 69 20.6 50 50 SW 5 7 29.98 1015 10 16 N/A
7:52 pm 19:52 Mostly Sunny 85 29.4 68 20 57 57 SSW 5 7 29.98 1015 10 16 N/A
8:52 pm 20:52 Partly Cloudy 84 28.9 69 20.6 61 61 SSW 5 7 29.98 1015 10 16 N/A
9:52 pm 21:52 Mostly Clear 81 27.2 69 20.6 67 67 SSW 3 6 30.00 1016 10 16 N/A
10:52 pm 22:52 Mostly Clear 79 26.1 69 20.6 72 72 SSW 5 7 30.02 1017 10 16 N/A
11:52 pm 23:52 Clear 81 27 73 23 79 79 SSW 5 7 30.06 1018 10 16 N/A

Powered by AerisWeather